| time (UTC) | temp F | wind direction | speed MPH | gust MPH | rain 1hr in | rain 24hr in | rain mn in | humidity % | barometer mb |
| 20260505214120 | 66 | 0.0 | 0.0 | 0.00 | 0.00 | 0.00 | 46 | 1012.2 | |
| 20260505213320 | 66 | 0.0 | 0.0 | 0.00 | 0.00 | 0.00 | 45 | 1012.1 | |
| 20260505212520 | 66 | 0.0 | 0.0 | 0.00 | 0.00 | 0.00 | 45 | 1012.1 | |
| 20260505211720 | 66 | 0.0 | 0.0 | 0.00 | 0.00 | 0.00 | 45 | 1011.9 | |
| 20260505210920 | 67 | 0.0 | 0.0 | 0.00 | 0.00 | 0.00 | 46 | 1011.9 | |
| 20260505210120 | 67 | 0.0 | 0.0 | 0.00 | 0.00 | 0.00 | 44 | 1011.6 | |
| 20260505205320 | 67 | 0.0 | 0.0 | 0.00 | 0.00 | 0.00 | 44 | 1011.6 | |
| 20260505204520 | 67 | 0.0 | 0.0 | 0.00 | 0.00 | 0.00 | 44 | 1011.6 | |
| 20260505203720 | 66 | 0.0 | 0.0 | 0.00 | 0.00 | 0.00 | 45 | 1011.6 | |
| 20260505202920 | 66 | 0.0 | 0.0 | 0.00 | 0.00 | 0.00 | 45 | 1011.5 | |
| 20260505202120 | 66 | 0.0 | 0.0 | 0.00 | 0.00 | 0.00 | 44 | 1011.6 | |
| 20260505201321 | 66 | 0.0 | 0.0 | 0.00 | 0.00 | 0.00 | 46 | 1011.6 | |
| 20260505200520 | 66 | 0.0 | 0.0 | 0.00 | 0.00 | 0.00 | 48 | 1011.6 | |
| 20260505195720 | 65 | 0.0 | 0.0 | 0.00 | 0.00 | 0.00 | 49 | 1011.3 | |
| 20260505194120 | 65 | 0.0 | 0.0 | 0.00 | 0.00 | 0.00 | 50 | 1011.1 | |
| 20260505193320 | 65 | 0.0 | 0.0 | 0.00 | 0.00 | 0.00 | 51 | 1010.9 | |
| 20260505192519 | 66 | 0.0 | 0.0 | 0.00 | 0.00 | 0.00 | 50 | 1010.5 | |
| 20260505191719 | 66 | 0.0 | 0.0 | 0.00 | 0.00 | 0.00 | 49 | 1010.7 | |
| 20260505190920 | 67 | 0.0 | 0.0 | 0.00 | 0.00 | 0.00 | 45 | 1010.6 | |
| 20260505190120 | 68 | 0.0 | 0.0 | 0.00 | 0.00 | 0.00 | 42 | 1010.5 | |
| 20260505185319 | 69 | 0.0 | 0.0 | 0.00 | 0.00 | 0.00 | 42 | 1010.4 | |
| 20260505184519 | 69 | 0.0 | 0.0 | 0.00 | 0.00 | 0.00 | 40 | 1010.2 | |
| 20260505183720 | 69 | 0.0 | 0.0 | 0.00 | 0.00 | 0.00 | 40 | 1010.2 | |
| 20260505182921 | 69 | 0.0 | 0.0 | 0.00 | 0.00 | 0.00 | 39 | 1010.4 | |
| 20260505182120 | 69 | 0.0 | 0.0 | 0.00 | 0.00 | 0.00 | 38 | 1010.6 | |
| 20260505181320 | 69 | 0.0 | 0.0 | 0.00 | 0.00 | 0.00 | 39 | 1010.6 | |
| 20260505180520 | 69 | 0.0 | 0.0 | 0.00 | 0.00 | 0.00 | 40 | 1010.8 | |
| 20260505175720 | 69 | 0.0 | 0.0 | 0.00 | 0.00 | 0.00 | 40 | 1010.8 | |
| 20260505174920 | 69 | 0.0 | 0.0 | 0.00 | 0.00 | 0.00 | 40 | 1010.7 | |
| 20260505174124 | 70 | 0.0 | 0.0 | 0.00 | 0.00 | 0.00 | 40 | 1010.8 | |
| 20260505173319 | 70 | 0.0 | 0.0 | 0.00 | 0.00 | 0.00 | 40 | 1011.0 | |
| 20260505172520 | 70 | 0.0 | 0.0 | 0.00 | 0.00 | 0.00 | 40 | 1011.0 | |
| 20260505171719 | 70 | 0.0 | 0.0 | 0.00 | 0.00 | 0.00 | 40 | 1010.9 | |
| 20260505170919 | 70 | 0.0 | 0.0 | 0.00 | 0.00 | 0.00 | 40 | 1011.0 | |
| 20260505170120 | 70 | 0.0 | 0.0 | 0.00 | 0.00 | 0.00 | 41 | 1011.0 | |
| 20260505165319 | 71 | 0.0 | 0.0 | 0.00 | 0.00 | 0.00 | 41 | 1011.0 | |
| 20260505164519 | 73 | 0.0 | 0.0 | 0.00 | 0.00 | 0.00 | 47 | 1011.0 | |
| 20260505163719 | 73 | 0.0 | 0.0 | 0.00 | 0.00 | 0.00 | 46 | 1010.8 | |
| 20260505162920 | 75 | 0.0 | 0.0 | 0.00 | 0.00 | 0.00 | 43 | 1010.7 | |
| 20260505162119 | 77 | 0.0 | 0.0 | 0.00 | 0.00 | 0.00 | 42 | 1010.6 | |
| 20260505161320 | 76 | 0.0 | 0.0 | 0.00 | 0.00 | 0.00 | 42 | 1010.6 | |
| 20260505160519 | 79 | 0.0 | 0.0 | 0.00 | 0.00 | 0.00 | 39 | 1010.3 | |
| 20260505153319 | 71 | 0.0 | 0.0 | 0.00 | 0.00 | 0.00 | 49 | 1010.7 | |
| 20260505152519 | 71 | 0.0 | 0.0 | 0.00 | 0.00 | 0.00 | 48 | 1010.6 | |
| 20260505151719 | 71 | 0.0 | 0.0 | 0.00 | 0.00 | 0.00 | 47 | 1010.4 | |
| 20260505150919 | 71 | 0.0 | 0.0 | 0.00 | 0.00 | 0.00 | 49 | 1010.6 | |
| 20260505150119 | 71 | 0.0 | 0.0 | 0.00 | 0.00 | 0.00 | 48 | 1010.5 | |
| 20260505140520 | 70 | 0.0 | 0.0 | 0.00 | 0.00 | 0.00 | 49 | 1011.1 | |
| 20260505130119 | 69 | 0.0 | 0.0 | 0.00 | 0.00 | 0.00 | 50 | 1011.5 | |
| 20260505124519 | 69 | 0.0 | 0.0 | 0.00 | 0.00 | 0.00 | 48 | 1011.5 | |
| 20260505123719 | 69 | 0.0 | 0.0 | 0.00 | 0.00 | 0.00 | 47 | 1011.6 | |
| 20260505122919 | 69 | 0.0 | 0.0 | 0.00 | 0.00 | 0.00 | 46 | 1011.6 | |
| 20260505122119 | 69 | 0.0 | 0.0 | 0.00 | 0.00 | 0.00 | 48 | 1011.7 | |
| 20260505121319 | 69 | 0.0 | 0.0 | 0.00 | 0.00 | 0.00 | 45 | 1011.8 | |
| 20260505120519 | 70 | 0.0 | 0.0 | 0.00 | 0.00 | 0.00 | 43 | 1011.8 | |
| 20260505115721 | 70 | 0.0 | 0.0 | 0.00 | 0.00 | 0.00 | 44 | 1011.8 | |
| 20260505114919 | 70 | 0.0 | 0.0 | 0.00 | 0.00 | 0.00 | 40 | 1011.8 | |
| 20260505114119 | 70 | 0.0 | 0.0 | 0.00 | 0.00 | 0.00 | 44 | 1011.9 | |
| 20260505113319 | 69 | 0.0 | 0.0 | 0.00 | 0.00 | 0.00 | 44 | 1011.9 | |
| 20260505112519 | 69 | 0.0 | 0.0 | 0.00 | 0.00 | 0.00 | 44 | 1012.0 | |
| 20260505111719 | 69 | 0.0 | 0.0 | 0.00 | 0.00 | 0.00 | 46 | 1012.0 | |
| 20260505110919 | 69 | 0.0 | 0.0 | 0.00 | 0.00 | 0.00 | 45 | 1012.1 | |
| 20260505110119 | 70 | 0.0 | 0.0 | 0.00 | 0.00 | 0.00 | 45 | 1012.2 | |
| 20260505102114 | 68 | 0.0 | 0.0 | 0.00 | 0.00 | 0.00 | 51 | 1012.2 | |
| 20260505101319 | 68 | 0.0 | 0.0 | 0.00 | 0.00 | 0.00 | 51 | 1012.4 | |
| 20260505100519 | 68 | 0.0 | 0.0 | 0.00 | 0.00 | 0.00 | 51 | 1012.6 | |
| 20260505095719 | 68 | 0.0 | 0.0 | 0.00 | 0.00 | 0.00 | 51 | 1012.5 | |
| 20260505094919 | 68 | 0.0 | 0.0 | 0.00 | 0.00 | 0.00 | 49 | 1012.5 | |
| 20260505094120 | 68 | 0.0 | 0.0 | 0.00 | 0.00 | 0.00 | 48 | 1012.5 | |
| 20260505093319 | 68 | 0.0 | 0.0 | 0.00 | 0.00 | 0.00 | 50 | 1012.1 | |
| 20260505092522 | 68 | 0.0 | 0.0 | 0.00 | 0.00 | 0.00 | 50 | 1012.0 | |
| 20260505091719 | 68 | 0.0 | 0.0 | 0.00 | 0.00 | 0.00 | 51 | 1012.1 | |
| 20260505090919 | 67 | 0.0 | 0.0 | 0.00 | 0.00 | 0.00 | 52 | 1012.2 | |
| 20260505090119 | 67 | 0.0 | 0.0 | 0.00 | 0.00 | 0.00 | 54 | 1011.8 | |
| 20260505085319 | 67 | 0.0 | 0.0 | 0.00 | 0.00 | 0.00 | 54 | 1012.0 | |
| 20260505084519 | 67 | 0.0 | 0.0 | 0.00 | 0.00 | 0.00 | 51 | 1012.4 | |
| 20260505083719 | 66 | 0.0 | 0.0 | 0.00 | 0.00 | 0.00 | 53 | 1012.6 | |
| 20260505082919 | 66 | 0.0 | 0.0 | 0.00 | 0.00 | 0.00 | 50 | 1012.6 | |
| 20260505082119 | 66 | 0.0 | 0.0 | 0.00 | 0.00 | 0.00 | 50 | 1012.4 | |
| 20260505081319 | 66 | 0.0 | 0.0 | 0.00 | 0.00 | 0.00 | 49 | 1012.2 | |
| 20260505080519 | 67 | 0.0 | 0.0 | 0.00 | 0.00 | 0.00 | 49 | 1012.1 | |
| 20260505075719 | 67 | 0.0 | 0.0 | 0.00 | 0.00 | 0.00 | 49 | 1012.1 | |
| 20260505074919 | 66 | 0.0 | 0.0 | 0.00 | 0.00 | 0.00 | 49 | 1012.1 | |
| 20260505074119 | 66 | 0.0 | 0.0 | 0.00 | 0.00 | 0.00 | 50 | 1012.2 | |
| 20260505073319 | 65 | 0.0 | 0.0 | 0.00 | 0.00 | 0.00 | 51 | 1012.2 | |
| 20260505072519 | 65 | 0.0 | 0.0 | 0.00 | 0.00 | 0.00 | 51 | 1012.2 | |
| 20260505071719 | 65 | 0.0 | 0.0 | 0.00 | 0.00 | 0.00 | 49 | 1012.2 | |
| 20260505070919 | 65 | 0.0 | 0.0 | 0.00 | 0.00 | 0.00 | 48 | 1012.2 | |
| 20260505070119 | 64 | 0.0 | 0.0 | 0.00 | 0.00 | 0.00 | 50 | 1012.1 | |
| 20260505065319 | 65 | 0.0 | 0.0 | 0.00 | 0.00 | 0.00 | 51 | 1012.2 | |
| 20260504215719 | 65 | 0.0 | 0.0 | 0.00 | 0.00 | 0.00 | 58 | 1012.2 | |
| 20260504214919 | 65 | 0.0 | 0.0 | 0.00 | 0.00 | 0.00 | 58 | 1012.2 |